AJ1L Weather Reports


time (UTC)temp
C
wind
direction
speed
KPH
gust
KPH
rain 1hr
cm
rain 24hr
cm
rain mn
cm
humidity
%
barometer
mb
20260902014012 16 279 0.0 1.6 0.00 0.08 0.08 93 1018.9
20260902010653 16 0 0.0 0.0 0.00 0.08 0.08 93 1018.9
20260902005012 16 0 0.0 0.0 0.00 0.08 0.08 93 1018.5
20260902003332 16 0 0.0 0.0 0.00 0.08 0.08 92 1018.6
20260902001653 16 279 0.0 3.2 0.00 0.08 0.08 93 1018.6
20260902000012 17 279 0.0 1.6 0.00 0.08 0.08 92 1018.7
20260901234333 17 0 0.0 0.0 0.00 0.08 0.08 92 1018.4
20260901232654 17 0 0.0 0.0 0.00 0.08 0.08 92 1018.4
20260901231012 17 0 0.0 0.0 0.00 0.08 0.08 92 1018.3
20260901225332 17 279 0.0 1.6 0.00 0.08 0.08 91 1018.2
20260901223652 17 0 0.0 0.0 0.00 0.08 0.08 91 1018.1
20260901222012 17 279 0.0 1.6 0.00 0.08 0.08 90 1018.3
20260901220332 17 279 0.0 1.6 0.00 0.08 0.08 90 1018.6
20260901214652 17 0 0.0 0.0 0.00 0.08 0.08 89 1018.5
20260901213012 17 279 0.0 1.6 0.00 0.08 0.08 88 1018.5
20260901211332 18 279 0.0 1.6 0.00 0.08 0.08 88 1018.3
20260901205652 18 159 0.0 1.6 0.00 0.08 0.08 88 1018.0
20260901204012 17 134 0.0 3.2 0.00 0.08 0.08 88 1017.8
20260901202332 17 114 0.0 3.2 0.00 0.08 0.08 87 1017.8
20260901200652 17 130 0.0 4.8 0.00 0.08 0.08 87 1017.6
20260901195012 17 244 0.0 3.2 0.00 0.08 0.08 87 1017.8
20260901193332 17 112 1.6 4.8 0.00 0.08 0.08 86 1017.7
20260901191652 17 221 0.0 4.8 0.03 0.08 0.08 86 1017.5
20260901190012 17 171 1.6 3.2 0.03 0.08 0.08 85 1017.5
20260901184332 18 233 1.6 6.4 0.03 0.08 0.08 85 1017.6
20260901182652 18 138 1.6 4.8 0.03 0.08 0.08 85 1017.6
20260901181012 19 109 1.6 6.4 0.00 0.05 0.05 83 1017.3
20260901175332 20 191 1.6 6.4 0.00 0.05 0.05 81 1017.1
20260901173652 20 162 0.0 4.8 0.00 0.05 0.05 82 1017.1
20260901172012 21 153 0.0 3.2 0.00 0.05 0.05 81 1017.1
20260901170332 20 153 0.0 1.6 0.00 0.05 0.05 82 1017.3
20260901164652 21 119 0.0 3.2 0.00 0.05 0.05 81 1017.0
20260901163012 20 149 0.0 4.8 0.00 0.05 0.05 85 1016.9
20260901161332 20 95 1.6 3.2 0.00 0.05 0.05 87 1017.0
20260901155652 20 76 1.6 3.2 0.00 0.05 0.05 88 1017.0
20260901154012 20 76 0.0 3.2 0.00 0.05 0.05 88 1017.2
20260901152332 20 76 0.0 1.6 0.00 0.05 0.05 88 1017.4
20260901150652 20 76 0.0 1.6 0.00 0.05 0.05 89 1017.5
20260901145012 20 76 0.0 1.6 0.03 0.05 0.05 91 1017.6
20260901143332 20 101 1.6 3.2 0.03 0.05 0.05 93 1017.7
20260901141655 19 78 0.0 1.6 0.05 0.05 0.05 93 1017.6
20260901134332 19 79 0.0 3.2 0.03 0.03 0.03 92 1017.9
20260901131011 18 0 0.0 0.0 0.00 0.00 0.00 91 1017.9
20260901123652 18 0 0.0 0.0 0.00 0.00 0.00 91 1017.7
20260901122011 18 0 0.0 0.0 0.00 0.00 0.00 90 1017.7
20260901120331 18 290 0.0 3.2 0.00 0.00 0.00 91 1017.6
20260901114652 18 290 0.0 1.6 0.00 0.00 0.00 91 1017.4
20260901113011 18 290 0.0 1.6 0.00 0.00 0.00 91 1017.4
20260901111332 18 0 0.0 0.0 0.00 0.00 0.00 91 1017.4
20260901105652 18 0 0.0 0.0 0.00 0.00 0.00 91 1017.4
20260901104014 18 0 0.0 0.0 0.00 0.00 0.00 91 1017.3
20260901102331 18 0 0.0 0.0 0.00 0.00 0.00 90 1017.1
20260901100652 18 0 0.0 0.0 0.00 0.00 0.00 90 1017.0
20260901093331 18 0 0.0 0.0 0.00 0.00 0.00 89 1017.0
20260901090011 18 290 0.0 3.2 0.00 0.00 0.00 89 1017.1
20260901084331 18 290 0.0 1.6 0.00 0.00 0.00 89 1017.2
20260901082651 18 290 0.0 1.6 0.00 0.00 0.00 89 1017.5
20260901081011 18 290 0.0 1.6 0.00 0.00 0.00 89 1017.6
20260901075331 18 290 0.0 1.6 0.00 0.00 0.00 89 1017.6
20260901073651 18 287 0.0 4.8 0.00 0.00 0.00 89 1017.7
20260901072011 18 279 0.0 3.2 0.00 0.00 0.00 89 1017.7
20260901070331 18 279 0.0 1.6 0.00 0.00 0.00 89 1017.8
20260901064651 18 279 0.0 3.2 0.00 0.00 0.00 89 1018.0
20260901063011 18 279 0.0 1.6 0.00 0.00 0.00 89 1017.9
20260901061333 18 0 0.0 0.0 0.00 0.00 0.00 89 1018.0
20260901055651 18 276 0.0 3.2 0.00 0.00 0.00 89 1018.0
20260901054012 18 268 0.0 1.6 0.00 0.00 0.00 88 1017.8
20260901052331 18 301 0.0 1.6 0.00 0.00 0.00 89 1018.1
20260901050654 18 316 0.0 1.6 0.00 0.00 0.00 88 1018.2
20260901045011 18 241 0.0 3.2 0.00 0.00 0.00 88 1018.2
20260901043331 18 316 0.0 1.6 0.00 0.03 0.00 88 1018.2
20260901041651 18 286 0.0 3.2 0.00 0.03 0.00 88 1018.5
20260901040236 18 325 0.0 4.8 0.00 0.03 0.00 87 1018.3
20260901040011 18 325 0.0 4.8 0.00 0.03 0.00 87 1018.3
20260901034331 18 269 0.0 1.6 0.00 0.05 0.03 87 1018.3
20260901031017 18 286 0.0 3.2 0.00 0.61 0.03 86 1018.5
20260901025332 18 113 0.0 3.2 0.00 0.64 0.03 86 1018.4
20260901023757 18 280 1.6 4.8 0.00 0.66 0.03 85 1018.4
20260901023651 18 280 1.6 4.8 0.00 0.66 0.03 85 1018.4
20260901020334 18 326 1.6 3.2 0.00 0.66 0.03 85 1018.6